Location: Possagno
(45.8500°N, 11.8667°E)
Time: 21:46:24
(UTC+00:00)

Resurs 1-4 Rocket - Pass Details

Date: 28 September 2020
Orbit: 800 x 813 km, 98.6° (Epoch: 27 October)

Event Time Altitude Azimuth Distance (km) Brightness Sun altitude
Rises 01:48:32 0° 6° (N) 3,329 5.9 -33.3°
Reaches altitude 10° 01:51:03 10° 357° (N) 2,396 4.9 -33.0°
Enters shadow 01:52:57 20° 344° (NNW) 1,777 4.0 -32.7°
